Starlink 30295

operational
NORAD ID: 57683 Int'l Des: 2023-124 Owner: SPXS Country: US Constellation: starlink
LEOCIRCULAR

About Starlink 30295

Description loading...

Live Position

Loading 3D Globe...

Upcoming Passes

Altitude History

Altitude vs Time

uPlot chart will show altitude changes over time

Two-Line Element Set

1 57683U 23124W 25259.36449420 -.00001377 00000-0 -34389-4 0 9997
2 57683 53.1616 296.7974 0001407 87.7918 272.3243 15.30181661116877
Epoch: Sep 16, 2025 • Age: 40 hours

Current Status

Altitude 475.1 km
Velocity 7.63 km/s
Sub-Earth Point 16.92°N, 89.37°E
Launch Date Aug 22, 2023
Age 2 years
Type internet

Technical Details

Classification Payload
Mass 730.00 kg
Dry Mass 700.00 kg
Total Mass 730.00 kg
Length 0.30 m
Diameter 4.10 m
Span 29.00 m
Shape Box + pan
Manufacturer SPXS
Bus Type Starlink V2M
Phase Status In Orbit
Owner/State SPXS/US

Large Constellations

Loading constellations...